RH
19 25 29 33 35 35 39 43 54 62 68 67 66 71 73 72 64 72 73 71 76 79 73 78 95 99 95 95 89 73 54 41 34 29 24 23 21 18 18 18 17 18 20 21 22 20 18
12 21 27 31 33 35 37 42 49 57 62 58 59 59 59 59 62 72 75 75 78 80 80 84 95 97 90 97 93 73 54 45 36 30 26 25 23 21 20 19 18 19 19 20 19 19 20
10 13 21 28 29 30 32 38 44 49 56 55 56 55 54 59 64 69 73 75 78 82 84 89 89 93 86 96 88 74 56 47 38 32 28 27 26 24 23 23 22 22 22 23 24 23 23
11 11 16 24 27 28 30 32 45 45 48 56 54 49 46 52 56 61 63 71 79 83 86 85 83 82 83 89 85 77 63 53 43 36 33 31 29 29 27 27 27 27 27 28 27 26 25
16 11 13 19 25 26 29 32 38 51 44 43 51 46 46 47 53 62 66 68 74 81 86 86 82 80 86 87 83 76 69 56 46 38 36 35 34 33 31 31 33 32 36 27 28 28 27
31 14 13 15 21 26 26 29 33 44 51 40 42 43 41 41 49 62 70 71 75 87 96 95 96 94 97 91 86 78 67 58 48 41 37 35 33 34 34 35 34 31 28 29 28 28 28
41 28 14 14 17 24 27 27 29 36 46 45 38 39 42 46 53 64 76 69 71 85 95 96 97 97 97 94 84 81 75 64 56 48 44 40 39 41 35 32 30 29 29 29 29 31 31
56 39 23 15 16 20 26 27 26 30 39 48 47 42 43 50 56 75 84 74 78 85 90 96 96 95 94 89 82 81 76 70 60 55 50 47 46 38 35 32 32 32 32 36 34 35 35
53 52 37 19 15 18 23 28 27 26 30 39 46 47 47 47 55 71 75 78 81 80 79 89 95 92 89 83 81 76 72 67 65 62 57 54 50 43 38 37 37 40 38 40 42 41 40
51 57 49 37 16 16 19 25 30 27 24 28 35 42 45 47 52 59 65 73 80 75 75 82 86 89 82 78 75 72 69 68 67 68 64 61 55 50 49 48 46 48 49 49 50 54 55
46 51 59 47 39 15 15 19 26 30 28 24 26 30 36 43 46 50 56 63 65 66 79 75 78 75 71 74 67 67 64 62 63 62 61 59 57 59 59 57 52 55 52 49 51 55 55
36 45 52 58 48 40 14 15 17 25 29 27 22 23 27 32 40 45 47 54 57 60 77 70 66 66 64 63 59 55 54 53 53 52 50 54 51 52 52 49 48 48 49 50 51 51 56
28 34 47 49 57 50 41 14 14 17 24 29 26 20 21 25 29 34 43 49 52 66 62 57 59 56 56 57 57 56 54 55 59 59 59 56 53 48 46 49 46 46 47 55 55 58 56
23 27 37 47 47 55 50 44 13 14 17 26 30 31 25 25 28 30 36 36 49 54 53 48 52 52 53 53 53 53 54 55 54 53 57 59 56 46 44 45 46 44 44 53 57 62 57
19 22 28 36 45 45 53 48 46 12 13 18 26 29 31 29 27 26 26 36 37 40 44 48 49 50 50 48 49 48 49 50 49 46 49 51 50 42 40 42 44 51 57 56 61 64 73
16 18 22 32 38 46 49 54 48 42 12 13 18 26 30 32 28 23 28 39 35 32 32 36 37 39 43 44 46 45 45 44 43 41 40 42 46 42 44 48 52 55 62 67 78 81 82
15 19 22 30 37 42 49 53 55 47 38 13 16 20 24 29 29 26 41 40 38 40 42 40 38 35 36 36 40 43 43 45 46 46 48 48 50 52 54 60 64 72 74 78 81 82 81
19 19 22 25 31 38 44 51 53 55 47 35 14 17 19 26 28 35 39 38 38 41 48 52 53 53 52 51 51 54 56 57 58 58 63 60 65 70 66 65 70 72 73 74 77 76 80
21 22 24 29 31 36 39 45 51 51 54 48 31 16 18 21 28 35 36 37 37 40 42 43 45 45 47 53 57 57 59 58 57 59 61 61 68 71 68 67 70 71 71 70 71 73 72
25 28 29 34 41 43 45 47 52 52 52 52 46 30 18 21 23 25 30 34 36 35 36 37 38 38 39 40 38 39 37 38 37 40 45 49 54 51 51 47 51 58 56 59 62 65 58
34 39 42 48 53 56 55 56 59 58 56 54 54 49 29 25 25 26 26 27 30 31 31 29 30 30 32 33 33 35 31 35 35 36 40 41 44 42 39 37 38 38 38 39 48 43 50
35 42 48 52 57 57 58 61 64 64 61 57 54 56 52 30 23 23 25 28 27 26 28 28 27 26 27 28 24 28 27 31 32 37 40 41 42 40 40 32 35 39 35 36 36 35 39
40 43 48 54 57 58 58 63 65 66 65 61 58 56 56 55 39 26 23 22 25 27 26 26 26 27 27 25 25 25 26 26 28 34 40 43 46 43 43 34 35 29 19 21 27 28 26
53 53 53 56 60 61 61 63 64 68 68 69 65 61 57 59 59 46 26 25 23 25 25 26 29 30 26 26 27 27 27 27 29 32 35 41 46 49 50 40 42 18 18 18 21 19 20
58 61 60 61 63 63 64 62 61 69 71 72 68 67 62 60 63 60 51 37 30 30 29 25 25 25 27 27 27 26 25 28 30 34 37 38 45 50 53 52 31 19 20 22 24 17 14
69 68 67 65 66 66 69 65 62 68 73 73 71 68 67 68 62 63 64 60 49 37 31 31 29 27 31 32 30 27 24 23 29 37 38 41 44 49 54 57 43 15 17 19 21 20 13
67 68 68 67 67 67 66 62 62 65 72 75 77 74 70 71 65 63 62 64 65 60 51 41 38 38 35 37 39 39 35 27 28 37 44 46 50 49 48 47 39 23 19 20 18 12 16
55 60 62 65 68 67 66 64 65 65 69 73 76 77 78 73 74 72 70 67 66 67 68 66 61 51 47 45 41 38 39 30 29 29 38 39 43 46 46 48 45 21 22 21 16 15 18
53 54 54 58 58 58 60 63 65 67 68 72 72 78 77 77 74 74 80 74 68 63 67 69 69 71 69 62 54 49 45 42 36 35 31 34 31 37 35 30 20 22 19 18 18 18 20